Find Nadezhda

NORAD ID: 26384 Int'l Des: 2000-033 Owner: VMFR/VKSR Country: RU operational
LEOCIRCULARRETROGRADESSO

現在のビュー

3D地球を読み込み中...

Nadezhdaについて

説明を読み込み中...

次回通過

Passes for default location (London). Set your location on the main map for personalized predictions.

高度履歴

Loading altitude history...

軌道要素

1 26384U 00033A 26150.95209501 .00000980 00000-0 16598-3 0 9993
2 26384 97.8406 126.8341 0014286 52.2907 307.9593 14.71327969385652
Epoch: May 30, 2026 • Age: 17 hours

現在のステータス

高度 663.2 km
速度 7.53 km/s
衛星直下点 55.37°N, 166.18°W
打ち上げ日 Jun 28, 2000
運用期間 25.9 years
タイプ other

技術仕様

分類 Payload
質量 870.00 kg
乾燥質量 870.00 kg
総質量 870.00 kg
長さ 5.00 m
直径 2.10 m
スパン 17.00 m
形状 Cyl + Ant
製造者 POL
バスタイプ KAUR-1 17F118
フェーズステータス In Orbit
所有者/国 VMFR/VKSR/RU

Most Searched